GSAT0102 (GALILEO-FM2)

Last updated on Sat Nov 15 2025 00:02:35 GMT+0000 (Coordinated Universal Time)

1 37847U 11060B 25316.34802000 -.00000089 00000+0 00000+0 0 9997 2 37847 57.0603 347.6457 0004293 301.4068 73.0736 1.70475856 87439
UTC large
Height (km)
Speed (km/s)
/
Latitude / Longitude
Inclination (degrees)
Orbital Period (minutes)
Azimuth
Elevation
Range (km)
Doppler Factor

Next 0 passes for location: London (51.5072 / 0.1276)

Sorry there are no passes over London.